,,PA_Meas_PMT16A,,PR_Meas_QMR101_102,,RH_Meas_QMH101,,SR_Meas_QMS101,,TA_Meas_QMH101,,GenWind,,GenWind,
time,status,PA,status,PR,status,RH,status,SR,status,TA,status,DirAvg,status,SpdAvg,
2010-01-05, 00:00:04,VALID,916.347,VALID,0,VALID,93.2115,VALID,0.107441,VALID,20.3027,VALID,356,VALID,0.657812,
2010-01-05, 00:01:04,VALID,916.35,VALID,0,VALID,92.9981,VALID,0,VALID,20.3027,VALID,356,VALID,0.885938,
2010-01-05, 00:02:04,VALID,916.366,VALID,0,VALID,93.2115,VALID,0.107441,VALID,20.3222,VALID,356,VALID,0.802344,
2010-01-05, 00:03:04,VALID,916.378,VALID,0,VALID,92.9904,VALID,0,VALID,20.3027,VALID,356,VALID,0.760156,
2010-01-05, 00:04:04,VALID,916.368,VALID,0,VALID,93.1048,VALID,0,VALID,20.3043,VALID,356,VALID,0.372266,
2010-01-05, 00:05:04,VALID,916.378,VALID,0,VALID,93.1505,VALID,0.107441,VALID,20.2832,VALID,356,VALID,0.26875,
2010-01-05, 00:06:04,VALID,916.363,VALID,0,VALID,93.1353,VALID,0.107441,VALID,20.2832,VALID,356,VALID,0.25,
2010-01-05, 00:07:04,VALID,916.33,VALID,0,VALID,93.425,VALID,0.107441,VALID,20.2848,VALID,356,VALID,0.568359,
2010-01-05, 00:08:04,VALID,916.313,VALID,0,VALID,93.8747,VALID,0,VALID,20.2637,VALID,356,VALID,0.651172,
2010-01-05, 00:09:04,VALID,916.273,VALID,0,VALID,93.4859,VALID,0.107441,VALID,20.2247,VALID,356,VALID,0.759375,
2010-01-05, 00:10:04,VALID,916.29,VALID,0,VALID,93.364,VALID,0,VALID,20.2263,VALID,356,VALID,0.925,
2010-01-05, 00:11:04,VALID,916.262,VALID,0,VALID,93.1963,VALID,0,VALID,20.1857,VALID,356,VALID,1.20703,
2010-01-05, 00:12:04,VALID,916.233,VALID,0,VALID,93.0514,VALID,0,VALID,20.2263,VALID,356,VALID,0.958594,
2010-01-05, 00:13:04,VALID,916.215,VALID,0,VALID,92.9294,VALID,0.107441,VALID,20.2247,VALID,356,VALID,1.15742,
2010-01-05, 00:14:04,VALID,916.211,VALID,0,VALID,92.7922,VALID,0.107441,VALID,20.2442,VALID,356,VALID,0.834766,
2010-01-05, 00:15:04,VALID,916.154,VALID,0,VALID,93.0362,VALID,0.107441,VALID,20.2637,VALID,356,VALID,0.720312,
2010-01-05, 00:16:04,VALID,916.132,VALID,0,VALID,92.8151,VALID,0.107441,VALID,20.2458,VALID,356,VALID,1.16641,
2010-01-05, 00:17:04,VALID,916.096,VALID,0,VALID,92.6855,VALID,0.107441,VALID,20.2442,VALID,356,VALID,1.22734,
2010-01-05, 00:18:04,VALID,916.107,VALID,0,VALID,92.7617,VALID,0,VALID,20.3043,VALID,356,VALID,0.630859,
2010-01-05, 00:19:04,VALID,916.131,VALID,0,VALID,92.9294,VALID,0,VALID,20.2848,VALID,356,VALID,0.532812,
2010-01-05, 00:20:04,VALID,916.116,VALID,0,VALID,93.1048,VALID,0,VALID,20.2848,VALID,356,VALID,0.432813,
2010-01-05, 00:21:04,VALID,916.075,VALID,0,VALID,92.6245,VALID,0,VALID,20.2458,VALID,332,VALID,1.54922,
2010-01-05, 00:22:04,VALID,916.07,VALID,0,VALID,92.8151,VALID,0,VALID,20.2653,VALID,330,VALID,0.6875,
2010-01-05, 00:23:04,VALID,916.077,VALID,0,VALID,92.7084,VALID,0,VALID,20.2442,VALID,330,VALID,0.768359,
2010-01-05, 00:24:04,VALID,916.055,VALID,0,VALID,92.9676,VALID,0.107441,VALID,20.2458,VALID,330,VALID,0.521875,
2010-01-05, 00:25:04,VALID,916.077,VALID,0,VALID,93.4783,VALID,0.107441,VALID,20.2263,VALID,330,VALID,0.297266,
2010-01-05, 00:26:04,VALID,916.074,VALID,0,VALID,93.3106,VALID,0,VALID,20.1678,VALID,330,VALID,0.705469,
2010-01-05, 00:27:04,VALID,916.111,VALID,0,VALID,93.3716,VALID,0.107441,VALID,20.1678,VALID,330,VALID,0.792578,
2010-01-05, 00:28:04,VALID,916.107,VALID,0,VALID,93.3411,VALID,0,VALID,20.1483,VALID,330,VALID,0.342187,
2010-01-05, 00:29:04,VALID,916.104,VALID,0,VALID,93.425,VALID,0,VALID,20.1678,VALID,330,VALID,0.121875,
2010-01-05, 00:30:04,VALID,916.147,VALID,0,VALID,93.8138,VALID,0.107441,VALID,20.1483,VALID,330,VALID,0,
2010-01-05, 00:31:04,VALID,916.127,VALID,0,VALID,93.3182,VALID,0,VALID,20.1288,VALID,331,VALID,0.749219,
2010-01-05, 00:32:04,VALID,916.077,VALID,0,VALID,93.3716,VALID,0,VALID,20.1483,VALID,332,VALID,0.774609,
2010-01-05, 00:33:04,VALID,916.037,VALID,0,VALID,92.716,VALID,0,VALID,20.1873,VALID,332,VALID,1.23516,
2010-01-05, 00:34:04,VALID,916.018,VALID,0,VALID,92.7389,VALID,0,VALID,20.2278,VALID,333,VALID,1.10078,
2010-01-05, 00:35:04,VALID,916.007,VALID,0,VALID,92.6702,VALID,0,VALID,20.2068,VALID,5,VALID,0.849609,
2010-01-05, 00:36:04,VALID,916.011,VALID,0,VALID,92.6245,VALID,0,VALID,20.2068,VALID,5,VALID,0.839453,
2010-01-05, 00:37:04,VALID,915.933,VALID,0,VALID,92.5254,VALID,0,VALID,20.2068,VALID,4,VALID,1.01875,
2010-01-05, 00:38:04,VALID,915.926,VALID,0,VALID,92.2738,VALID,0,VALID,20.2068,VALID,5,VALID,0.987109,
2010-01-05, 00:39:04,VALID,915.885,VALID,0,VALID,92.251,VALID,0,VALID,20.2068,VALID,5,VALID,0.699609,
2010-01-05, 00:40:04,VALID,915.84,VALID,0,VALID,92.6016,VALID,0,VALID,20.2263,VALID,5,VALID,0.320313,
2010-01-05, 00:41:04,VALID,915.829,VALID,0,VALID,92.4263,VALID,0.107441,VALID,20.2263,VALID,5,VALID,0.510156,
2010-01-05, 00:42:04,VALID,915.843,VALID,0,VALID,92.533,VALID,0,VALID,20.2068,VALID,5,VALID,0.644531,
2010-01-05, 00:43:04,VALID,915.836,VALID,0,VALID,92.5711,VALID,0.107441,VALID,20.2068,VALID,5,VALID,0.735547,
2010-01-05, 00:44:04,VALID,915.843,VALID,0,VALID,92.5788,VALID,0,VALID,20.2068,VALID,4,VALID,0.562109,
2010-01-05, 00:45:04,VALID,915.839,VALID,0,VALID,92.4492,VALID,0,VALID,20.2068,VALID,5,VALID,0.473828,
2010-01-05, 00:46:04,VALID,915.843,VALID,0,VALID,92.3806,VALID,0,VALID,20.2068,VALID,5,VALID,0.661719,
2010-01-05, 00:47:04,VALID,915.846,VALID,0,VALID,92.5178,VALID,0,VALID,20.1857,VALID,5,VALID,0.665625,
2010-01-05, 00:48:04,VALID,915.84,VALID,0,VALID,92.4339,VALID,0,VALID,20.1873,VALID,5,VALID,0.835547,
2010-01-05, 00:49:04,VALID,915.837,VALID,0,VALID,92.3196,VALID,0,VALID,20.1678,VALID,5,VALID,1.0293,
2010-01-05, 00:50:04,VALID,915.846,VALID,0,VALID,92.1976,VALID,0,VALID,20.1873,VALID,5,VALID,1.14531,
2010-01-05, 00:51:04,VALID,915.819,VALID,0,VALID,92.3577,VALID,0,VALID,20.1873,VALID,5,VALID,1.17461,
2010-01-05, 00:52:04,VALID,915.775,VALID,0,VALID,92.19,VALID,0,VALID,20.1678,VALID,4,VALID,1.22227,
2010-01-05, 00:53:04,VALID,915.74,VALID,0,VALID,92.4644,VALID,0,VALID,20.1873,VALID,5,VALID,0.962891,
2010-01-05, 00:54:04,VALID,915.696,VALID,0,VALID,92.3577,VALID,0,VALID,20.1483,VALID,22,VALID,1.18555,
2010-01-05, 00:55:04,VALID,915.705,VALID,0,VALID,92.5102,VALID,0,VALID,20.1288,VALID,21,VALID,1.17305,
2010-01-05, 00:56:04,VALID,915.681,VALID,0,VALID,92.1595,VALID,0,VALID,20.1483,VALID,21,VALID,1.51797,
2010-01-05, 00:57:04,VALID,915.658,VALID,0,VALID,92.0832,VALID,0.107441,VALID,20.1678,VALID,21,VALID,1.52383,
2010-01-05, 00:58:04,VALID,915.667,VALID,0,VALID,91.8545,VALID,0.107441,VALID,20.1873,VALID,354,VALID,1.50977,
2010-01-05, 00:59:04,VALID,915.689,VALID,0,VALID,91.8545,VALID,0.107441,VALID,20.2068,VALID,351,VALID,0.980469,
2010-01-05, 01:00:04,VALID,915.656,VALID,0,VALID,91.8927,VALID,0,VALID,20.2263,VALID,351,VALID,0.93125,
2010-01-05, 01:01:04,VALID,915.696,VALID,0,VALID,91.542,VALID,0.107441,VALID,20.2458,VALID,350,VALID,0.816406,
2010-01-05, 01:02:04,VALID,915.633,VALID,0,VALID,91.6182,VALID,0,VALID,20.2653,VALID,350,VALID,0.555859,
2010-01-05, 01:03:04,VALID,915.608,VALID,0,VALID,91.4734,VALID,0,VALID,20.2848,VALID,350,VALID,0.853125,
2010-01-05, 01:04:04,VALID,915.595,VALID,0,VALID,91.603,VALID,0,VALID,20.3043,VALID,349,VALID,0.974609,
2010-01-05, 01:05:04,VALID,915.606,VALID,0,VALID,91.9918,VALID,0,VALID,20.2653,VALID,345,VALID,0.888672,
2010-01-05, 01:06:04,VALID,915.614,VALID,0,VALID,92.5254,VALID,0,VALID,20.2263,VALID,345,VALID,0.695703,
2010-01-05, 01:07:04,VALID,915.609,VALID,0,VALID,92.9447,VALID,0,VALID,20.1662,VALID,344,VALID,0.835156,
2010-01-05, 01:08:04,VALID,915.604,VALID,0,VALID,93.4555,VALID,0.107441,VALID,20.1483,VALID,340,VALID,0.446094,
2010-01-05, 01:09:04,VALID,915.614,VALID,0,VALID,93.8519,VALID,0.107441,VALID,20.1093,VALID,340,VALID,0.305859,
2010-01-05, 01:10:04,VALID,915.633,VALID,0,VALID,93.7451,VALID,0.107441,VALID,20.0688,VALID,340,VALID,0.8625,
2010-01-05, 01:11:04,VALID,915.609,VALID,0,VALID,93.7833,VALID,0.107441,VALID,20.0898,VALID,340,VALID,0.457422,
2010-01-05, 01:12:04,VALID,915.648,VALID,0,VALID,94.0501,VALID,0.107441,VALID,20.0508,VALID,340,VALID,0.405859,
2010-01-05, 01:13:04,VALID,915.62,VALID,0,VALID,94.4465,VALID,0.107441,VALID,20.0313,VALID,340,VALID,0.839844,
2010-01-05, 01:14:04,VALID,915.602,VALID,0,VALID,94.6905,VALID,0,VALID,19.9923,VALID,340,VALID,0.598047,
2010-01-05, 01:15:04,VALID,915.587,VALID,0,VALID,94.3931,VALID,0.107441,VALID,19.9533,VALID,340,VALID,1.07461,
2010-01-05, 01:16:04,VALID,915.633,VALID,0,VALID,94.3017,VALID,0,VALID,19.9353,VALID,340,VALID,0.707812,
2010-01-05, 01:17:04,VALID,915.629,VALID,0,VALID,93.829,VALID,0,VALID,19.9353,VALID,340,VALID,0.654688,
2010-01-05, 01:18:04,VALID,915.604,VALID,0,VALID,93.4631,VALID,0,VALID,19.9548,VALID,340,VALID,0.765234,
2010-01-05, 01:19:04,VALID,915.624,VALID,0,VALID,93.1353,VALID,0,VALID,19.9953,VALID,340,VALID,0.607422,
2010-01-05, 01:20:04,VALID,915.62,VALID,0,VALID,92.8532,VALID,0,VALID,20.0133,VALID,340,VALID,0.727734,
2010-01-05, 01:21:04,VALID,915.647,VALID,0,VALID,92.8608,VALID,0,VALID,20.0538,VALID,340,VALID,0.551953,
2010-01-05, 01:22:04,VALID,915.641,VALID,0,VALID,92.6855,VALID,0,VALID,20.0313,VALID,340,VALID,0.691797,
2010-01-05, 01:23:04,VALID,915.638,VALID,0,VALID,93.0667,VALID,0,VALID,20.0913,VALID,340,VALID,0.334766,
2010-01-05, 01:24:04,VALID,915.619,VALID,0,VALID,93.5241,VALID,0,VALID,20.1108,VALID,340,VALID,0.225,
2010-01-05, 01:25:04,VALID,915.607,VALID,0,VALID,93.5622,VALID,0,VALID,20.0718,VALID,340,VALID,0.337109,
2010-01-05, 01:26:04,VALID,915.597,VALID,0,VALID,94.1187,VALID,0,VALID,20.1108,VALID,339,VALID,0.771875,
2010-01-05, 01:27:04,VALID,915.53,VALID,0,VALID,94.599,VALID,0,VALID,20.0718,VALID,340,VALID,0.467969,
2010-01-05, 01:28:04,VALID,915.565,VALID,0,VALID,94.881,VALID,0,VALID,20.0523,VALID,340,VALID,0.324609,
2010-01-05, 01:29:04,VALID,915.533,VALID,0,VALID,94.8429,VALID,0,VALID,20.0328,VALID,340,VALID,0.614453,
2010-01-05, 01:30:04,VALID,915.527,VALID,0,VALID,94.5304,VALID,0,VALID,19.9938,VALID,339,VALID,0.551172,
2010-01-05, 01:31:04,VALID,915.484,VALID,0,VALID,94.0425,VALID,0,VALID,19.9533,VALID,340,VALID,0.589453,
2010-01-05, 01:32:04,VALID,915.472,VALID,0,VALID,93.8595,VALID,0,VALID,19.9728,VALID,340,VALID,0.423438,
2010-01-05, 01:33:04,VALID,915.423,VALID,0,VALID,94.0196,VALID,0,VALID,19.9923,VALID,340,VALID,0.00117188,
2010-01-05, 01:34:04,VALID,915.407,VALID,0,VALID,94.012,VALID,0,VALID,19.9923,VALID,340,VALID,0.646094,
2010-01-05, 01:35:04,VALID,915.409,VALID,0,VALID,93.7756,VALID,0,VALID,19.9728,VALID,340,VALID,1.04844,
2010-01-05, 01:36:04,VALID,915.366,VALID,0,VALID,93.1048,VALID,0,VALID,19.9533,VALID,340,VALID,1.46797,
2010-01-05, 01:37:04,VALID,915.356,VALID,0,VALID,92.7465,VALID,0,VALID,20.0118,VALID,339,VALID,0.996875,
2010-01-05, 01:38:04,VALID,915.352,VALID,0,VALID,92.7236,VALID,0,VALID,20.0703,VALID,340,VALID,0.626562,
2010-01-05, 01:39:04,VALID,915.36,VALID,0,VALID,93.0743,VALID,0,VALID,20.0898,VALID,340,VALID,0.439453,
2010-01-05, 01:40:04,VALID,915.339,VALID,0,VALID,93.2649,VALID,0,VALID,20.0703,VALID,340,VALID,0.706641,
2010-01-05, 01:41:04,VALID,915.33,VALID,0,VALID,93.2801,VALID,0.107441,VALID,20.0298,VALID,340,VALID,0.538672,
2010-01-05, 01:42:04,VALID,915.316,VALID,0,VALID,93.1886,VALID,0,VALID,20.0103,VALID,339,VALID,1.12188,
2010-01-05, 01:43:04,VALID,915.286,VALID,0,VALID,92.838,VALID,0.107441,VALID,20.0328,VALID,340,VALID,1.28203,
2010-01-05, 01:44:04,VALID,915.263,VALID,0,VALID,92.6321,VALID,0,VALID,20.0313,VALID,340,VALID,1.2207,
2010-01-05, 01:45:04,VALID,915.252,VALID,0,VALID,92.533,VALID,0,VALID,20.0703,VALID,340,VALID,0.795703,
2010-01-05, 01:46:04,VALID,915.257,VALID,0,VALID,92.2967,VALID,0.107441,VALID,20.0703,VALID,339,VALID,0.891016,
2010-01-05, 01:47:04,VALID,915.236,VALID,0,VALID,92.3653,VALID,0,VALID,20.1093,VALID,340,VALID,0.453516,
2010-01-05, 01:48:04,VALID,915.221,VALID,0,VALID,93.6155,VALID,0,VALID,20.1483,VALID,339,VALID,0.719531,
2010-01-05, 01:49:04,VALID,915.21,VALID,0,VALID,94.1339,VALID,0,VALID,20.1093,VALID,339,VALID,0.541797,
2010-01-05, 01:50:04,VALID,915.202,VALID,0,VALID,94.5837,VALID,0,VALID,20.0508,VALID,339,VALID,0.538672,
2010-01-05, 01:51:04,VALID,915.2,VALID,0,VALID,94.9801,VALID,0,VALID,20.0118,VALID,339,VALID,0.730469,
2010-01-05, 01:52:04,VALID,915.2,VALID,0,VALID,95.2088,VALID,0,VALID,19.9533,VALID,339,VALID,0.500391,
2010-01-05, 01:53:04,VALID,915.163,VALID,0,VALID,95.4528,VALID,0,VALID,19.9143,VALID,339,VALID,0.286719,
2010-01-05, 01:54:04,VALID,915.179,VALID,0,VALID,95.6205,VALID,0,VALID,19.8753,VALID,339,VALID,0.428516,
2010-01-05, 01:55:04,VALID,915.151,VALID,0,VALID,95.7349,VALID,0,VALID,19.8753,VALID,339,VALID,0.439453,
2010-01-05, 01:56:04,VALID,915.177,VALID,0,VALID,95.895,VALID,0,VALID,19.8558,VALID,339,VALID,0.383203,
2010-01-05, 01:57:04,VALID,915.16,VALID,0,VALID,95.9331,VALID,0,VALID,19.8168,VALID,339,VALID,0.257422,
2010-01-05, 01:58:04,VALID,915.141,VALID,0,VALID,96.0017,VALID,0,VALID,19.7973,VALID,339,VALID,0,
2010-01-05, 01:59:04,VALID,915.11,VALID,0,VALID,96.055,VALID,0,VALID,19.7763,VALID,339,VALID,0,
2010-01-05, 02:00:04,VALID,915.096,VALID,0,VALID,96.1084,VALID,0,VALID,19.7973,VALID,339,VALID,0,
2010-01-05, 02:01:04,VALID,915.081,VALID,0,VALID,96.177,VALID,0,VALID,19.7778,VALID,339,VALID,0.233984,
2010-01-05, 02:02:04,VALID,915.11,VALID,0,VALID,96.1999,VALID,0,VALID,19.8168,VALID,339,VALID,0,
2010-01-05, 02:03:04,VALID,915.141,VALID,0,VALID,96.1923,VALID,0.107441,VALID,19.7763,VALID,339,VALID,0,
2010-01-05, 02:04:04,VALID,915.123,VALID,0,VALID,96.1694,VALID,0,VALID,19.7778,VALID,339,VALID,0,
2010-01-05, 02:05:04,VALID,915.118,VALID,0,VALID,96.1923,VALID,0,VALID,19.7778,VALID,339,VALID,0,
2010-01-05, 02:06:04,VALID,915.112,VALID,0,VALID,96.1618,VALID,0.107441,VALID,19.7778,VALID,339,VALID,0,
2010-01-05, 02:07:04,VALID,915.097,VALID,0,VALID,96.1084,VALID,0.107441,VALID,19.7583,VALID,339,VALID,0.457812,
2010-01-05, 02:08:04,VALID,915.128,VALID,0,VALID,96.0322,VALID,0,VALID,19.7193,VALID,339,VALID,0.301953,
2010-01-05, 02:09:04,VALID,915.107,VALID,0,VALID,96.0093,VALID,0.107441,VALID,19.6998,VALID,339,VALID,0.164063,
2010-01-05, 02:10:04,VALID,915.118,VALID,0,VALID,95.9254,VALID,0,VALID,19.6608,VALID,339,VALID,0,
2010-01-05, 02:11:04,VALID,915.122,VALID,0,VALID,95.8645,VALID,0,VALID,19.6608,VALID,339,VALID,0,
2010-01-05, 02:12:04,VALID,915.104,VALID,0,VALID,95.8568,VALID,0,VALID,19.6413,VALID,339,VALID,0.0441406,
2010-01-05, 02:13:04,VALID,915.122,VALID,0,VALID,95.8416,VALID,0,VALID,19.6413,VALID,339,VALID,0.0503906,
2010-01-05, 02:14:04,VALID,915.07,VALID,0,VALID,95.773,VALID,0,VALID,19.6413,VALID,339,VALID,0.376172,
2010-01-05, 02:15:04,VALID,915.083,VALID,0,VALID,95.6662,VALID,0,VALID,19.6428,VALID,339,VALID,0.213672,
2010-01-05, 02:16:04,VALID,915.099,VALID,0,VALID,95.7044,VALID,0,VALID,19.6413,VALID,339,VALID,0.110937,
2010-01-05, 02:17:04,VALID,915.09,VALID,0,VALID,95.6357,VALID,0.107441,VALID,19.6608,VALID,339,VALID,0,
2010-01-05, 02:18:04,VALID,915.072,VALID,0,VALID,95.6281,VALID,0,VALID,19.6608,VALID,339,VALID,0,
2010-01-05, 02:19:04,VALID,915.049,VALID,0,VALID,95.6281,VALID,0,VALID,19.6413,VALID,339,VALID,0,
2010-01-05, 02:20:04,VALID,915.045,VALID,0,VALID,95.6281,VALID,0,VALID,19.6803,VALID,339,VALID,0,
2010-01-05, 02:21:04,VALID,915.097,VALID,0,VALID,95.5138,VALID,0,VALID,19.6803,VALID,339,VALID,0,
2010-01-05, 02:22:04,VALID,915.074,VALID,0,VALID,95.4833,VALID,0,VALID,19.6803,VALID,339,VALID,0.344141,
2010-01-05, 02:23:04,VALID,915.057,VALID,0,VALID,95.59,VALID,0.107441,VALID,19.6608,VALID,339,VALID,0.492188,
2010-01-05, 02:24:04,VALID,915.055,VALID,0,VALID,95.5062,VALID,0,VALID,19.6218,VALID,339,VALID,0.783594,
2010-01-05, 02:25:04,VALID,915.072,VALID,0,VALID,95.5062,VALID,0.107441,VALID,19.6218,VALID,339,VALID,0.873828,
2010-01-05, 02:26:04,VALID,915.049,VALID,0,VALID,95.468,VALID,0,VALID,19.6023,VALID,339,VALID,0.996094,
2010-01-05, 02:27:04,VALID,915.097,VALID,0,VALID,95.3156,VALID,0,VALID,19.6218,VALID,339,VALID,0.868359,
2010-01-05, 02:28:04,VALID,915.101,VALID,0,VALID,95.2241,VALID,0.107441,VALID,19.6413,VALID,339,VALID,0.950391,
2010-01-05, 02:29:04,VALID,915.075,VALID,0,VALID,95.0183,VALID,0.107441,VALID,19.6593,VALID,339,VALID,0.794141,
2010-01-05, 02:30:04,VALID,915.057,VALID,0,VALID,95.0183,VALID,0,VALID,19.6998,VALID,339,VALID,0.548828,
2010-01-05, 02:31:04,VALID,915.072,VALID,0,VALID,94.9573,VALID,0,VALID,19.6803,VALID,339,VALID,0.336719,
2010-01-05, 02:32:04,VALID,915.015,VALID,0,VALID,94.82,VALID,0,VALID,19.6998,VALID,339,VALID,0.587109,
2010-01-05, 02:33:04,VALID,914.989,VALID,0,VALID,94.6523,VALID,0,VALID,19.7403,VALID,339,VALID,0.405078,
2010-01-05, 02:34:04,VALID,915,VALID,0,VALID,94.416,VALID,0,VALID,19.7388,VALID,339,VALID,0.432031,
2010-01-05, 02:35:04,VALID,915.006,VALID,0,VALID,94.1263,VALID,0.107441,VALID,19.7973,VALID,339,VALID,0.208203,
2010-01-05, 02:36:04,VALID,914.994,VALID,0,VALID,94.073,VALID,0.107441,VALID,19.8363,VALID,339,VALID,0,
2010-01-05, 02:37:04,VALID,914.993,VALID,0,VALID,94.1416,VALID,0.107441,VALID,19.8753,VALID,339,VALID,0,
2010-01-05, 02:38:04,VALID,914.951,VALID,0,VALID,94.073,VALID,0.107441,VALID,19.8753,VALID,339,VALID,0,
2010-01-05, 02:39:04,VALID,914.95,VALID,0,VALID,94.0272,VALID,0.107441,VALID,19.8948,VALID,339,VALID,0,
2010-01-05, 02:40:04,VALID,914.962,VALID,0,VALID,93.8824,VALID,0,VALID,19.9158,VALID,339,VALID,0,
2010-01-05, 02:41:04,VALID,914.97,VALID,0,VALID,93.8214,VALID,0,VALID,19.9158,VALID,339,VALID,0,
2010-01-05, 02:42:04,VALID,914.967,VALID,0,VALID,93.7604,VALID,0.107441,VALID,19.9143,VALID,339,VALID,0,
2010-01-05, 02:43:04,VALID,914.944,VALID,0,VALID,93.8671,VALID,0,VALID,19.9548,VALID,339,VALID,0,
2010-01-05, 02:44:04,VALID,914.983,VALID,0,VALID,93.9891,VALID,0,VALID,19.9338,VALID,339,VALID,0,
2010-01-05, 02:45:04,VALID,914.961,VALID,0,VALID,93.951,VALID,0,VALID,19.9353,VALID,339,VALID,0,
2010-01-05, 02:46:04,VALID,914.95,VALID,0,VALID,93.9891,VALID,0,VALID,19.8753,VALID,339,VALID,0.0230469,
2010-01-05, 02:47:04,VALID,914.964,VALID,0,VALID,94.0882,VALID,0.107441,VALID,19.8558,VALID,339,VALID,0.208594,
2010-01-05, 02:48:04,VALID,914.969,VALID,0,VALID,94.3703,VALID,0,VALID,19.8363,VALID,339,VALID,0.274219,
2010-01-05, 02:49:04,VALID,914.981,VALID,0,VALID,94.538,VALID,0,VALID,19.8363,VALID,339,VALID,0,
2010-01-05, 02:50:04,VALID,914.992,VALID,0,VALID,94.4922,VALID,0,VALID,19.7973,VALID,339,VALID,0.201953,
2010-01-05, 02:51:04,VALID,914.973,VALID,0,VALID,94.599,VALID,0,VALID,19.7973,VALID,339,VALID,0,
2010-01-05, 02:52:04,VALID,914.977,VALID,0,VALID,94.6142,VALID,0,VALID,19.7778,VALID,339,VALID,0,
2010-01-05, 02:53:04,VALID,914.931,VALID,0,VALID,94.6676,VALID,0,VALID,19.7973,VALID,339,VALID,0,
2010-01-05, 02:54:04,VALID,914.887,VALID,0,VALID,94.6981,VALID,0,VALID,19.7988,VALID,339,VALID,0,
2010-01-05, 02:55:04,VALID,914.915,VALID,0,VALID,94.7362,VALID,0,VALID,19.7778,VALID,339,VALID,0,
2010-01-05, 02:56:04,VALID,914.888,VALID,0,VALID,94.8429,VALID,0,VALID,19.7778,VALID,339,VALID,0,
2010-01-05, 02:57:04,VALID,914.878,VALID,0,VALID,94.6905,VALID,0,VALID,19.7778,VALID,339,VALID,0,
2010-01-05, 02:58:04,VALID,914.877,VALID,0,VALID,94.7286,VALID,0,VALID,19.8168,VALID,339,VALID,0,
2010-01-05, 02:59:04,VALID,914.848,VALID,0,VALID,94.416,VALID,0,VALID,19.8378,VALID,339,VALID,0,
2010-01-05, 03:00:04,VALID,914.834,VALID,0,VALID,94.3779,VALID,0.107441,VALID,19.8168,VALID,339,VALID,0,
2010-01-05, 03:01:04,VALID,914.802,VALID,0,VALID,94.5304,VALID,0,VALID,19.7973,VALID,339,VALID,0.171875,
2010-01-05, 03:02:04,VALID,914.805,VALID,0,VALID,94.5456,VALID,0,VALID,19.7583,VALID,339,VALID,0,
2010-01-05, 03:03:04,VALID,914.811,VALID,0,VALID,94.6371,VALID,0.107441,VALID,19.7193,VALID,339,VALID,0.234375,
2010-01-05, 03:04:04,VALID,914.827,VALID,0,VALID,94.7362,VALID,0,VALID,19.6788,VALID,339,VALID,0,
2010-01-05, 03:05:04,VALID,914.826,VALID,0,VALID,94.8658,VALID,0,VALID,19.6803,VALID,339,VALID,0.305859,
2010-01-05, 03:06:04,VALID,914.811,VALID,0,VALID,94.9192,VALID,0.107441,VALID,19.6608,VALID,339,VALID,0.199609,
2010-01-05, 03:07:04,VALID,914.851,VALID,0,VALID,94.9801,VALID,0,VALID,19.6608,VALID,339,VALID,0.344922,
2010-01-05, 03:08:04,VALID,914.828,VALID,0,VALID,94.9801,VALID,0,VALID,19.6608,VALID,339,VALID,0.0644531,
2010-01-05, 03:09:04,VALID,914.849,VALID,0,VALID,95.0259,VALID,0,VALID,19.6413,VALID,339,VALID,0,
2010-01-05, 03:10:04,VALID,914.831,VALID,0,VALID,95.0869,VALID,0,VALID,19.6413,VALID,339,VALID,0.196094,
2010-01-05, 03:11:04,VALID,914.807,VALID,0,VALID,95.0792,VALID,0.107441,VALID,19.6413,VALID,339,VALID,0.268359,
2010-01-05, 03:12:04,VALID,914.82,VALID,0,VALID,95.1631,VALID,0.107441,VALID,19.6413,VALID,339,VALID,0,
2010-01-05, 03:13:04,VALID,914.788,VALID,0,VALID,95.186,VALID,0,VALID,19.6218,VALID,339,VALID,0,
2010-01-05, 03:14:04,VALID,914.776,VALID,0,VALID,95.2927,VALID,0,VALID,19.6218,VALID,339,VALID,0.0191406,
2010-01-05, 03:15:04,VALID,914.771,VALID,0,VALID,95.3842,VALID,0,VALID,19.6413,VALID,339,VALID,0,
2010-01-05, 03:16:04,VALID,914.794,VALID,0,VALID,95.4071,VALID,0,VALID,19.6413,VALID,339,VALID,0,
2010-01-05, 03:17:04,VALID,914.774,VALID,0,VALID,95.4833,VALID,0,VALID,19.6608,VALID,339,VALID,0,
2010-01-05, 03:18:04,VALID,914.779,VALID,0,VALID,95.5443,VALID,0,VALID,19.6413,VALID,339,VALID,0,
2010-01-05, 03:19:04,VALID,914.772,VALID,0,VALID,95.4909,VALID,0,VALID,19.6218,VALID,339,VALID,0,
2010-01-05, 03:20:04,VALID,914.784,VALID,0,VALID,95.3689,VALID,0,VALID,19.6218,VALID,339,VALID,0,
2010-01-05, 03:21:04,VALID,914.777,VALID,0,VALID,95.3766,VALID,0,VALID,19.6023,VALID,339,VALID,0,
2010-01-05, 03:22:04,VALID,914.764,VALID,0,VALID,95.3842,VALID,0.107441,VALID,19.5828,VALID,339,VALID,0.0191406,
2010-01-05, 03:23:04,VALID,914.793,VALID,0,VALID,95.529,VALID,0.107441,VALID,19.5633,VALID,339,VALID,0,
2010-01-05, 03:24:04,VALID,914.796,VALID,0,VALID,95.6205,VALID,0,VALID,19.5633,VALID,339,VALID,0,
2010-01-05, 03:25:04,VALID,914.78,VALID,0,VALID,95.6434,VALID,0,VALID,19.5828,VALID,339,VALID,0.146484,
2010-01-05, 03:26:04,VALID,914.786,VALID,0,VALID,95.6281,VALID,0,VALID,19.5828,VALID,339,VALID,0,
2010-01-05, 03:27:04,VALID,914.79,VALID,0,VALID,95.6586,VALID,0,VALID,19.5828,VALID,339,VALID,0.169922,
2010-01-05, 03:28:04,VALID,914.795,VALID,0,VALID,95.6586,VALID,0,VALID,19.6218,VALID,339,VALID,0.371875,
2010-01-05, 03:29:04,VALID,914.77,VALID,0,VALID,95.5748,VALID,0.107441,VALID,19.6218,VALID,339,VALID,0.444922,
2010-01-05, 03:30:04,VALID,914.815,VALID,0,VALID,95.5138,VALID,0,VALID,19.6608,VALID,338,VALID,0.655469,
2010-01-05, 03:31:04,VALID,914.783,VALID,0,VALID,95.3461,VALID,0,VALID,19.7193,VALID,338,VALID,0.602344,
2010-01-05, 03:32:04,VALID,914.736,VALID,0,VALID,95.2317,VALID,0,VALID,19.7778,VALID,338,VALID,0.207031,
2010-01-05, 03:33:04,VALID,914.729,VALID,0,VALID,94.9954,VALID,0,VALID,19.7778,VALID,338,VALID,0.669531,
2010-01-05, 03:34:04,VALID,914.76,VALID,0,VALID,94.7667,VALID,0,VALID,19.8168,VALID,241,VALID,0.817578,
2010-01-05, 03:35:04,VALID,914.761,VALID,0,VALID,94.538,VALID,0,VALID,19.8558,VALID,241,VALID,0.0234375,
2010-01-05, 03:36:04,VALID,914.728,VALID,0,VALID,94.477,VALID,0,VALID,19.8543,VALID,241,VALID,0.671094,
2010-01-05, 03:37:04,VALID,914.748,VALID,0,VALID,94.2483,VALID,0,VALID,19.8948,VALID,241,VALID,1.00039,
2010-01-05, 03:38:04,VALID,914.724,VALID,0,VALID,94.0348,VALID,0,VALID,19.9143,VALID,241,VALID,0.455859,
2010-01-05, 03:39:04,VALID,914.713,VALID,0,VALID,93.9967,VALID,0,VALID,19.9338,VALID,241,VALID,0,
2010-01-05, 03:40:04,VALID,914.71,VALID,0,VALID,93.8214,VALID,0,VALID,19.9533,VALID,241,VALID,0.166406,
2010-01-05, 03:41:04,VALID,914.718,VALID,0,VALID,93.707,VALID,0,VALID,19.9338,VALID,241,VALID,0.0761719,
2010-01-05, 03:42:04,VALID,914.757,VALID,0,VALID,94.012,VALID,0,VALID,19.9143,VALID,241,VALID,0,
2010-01-05, 03:43:04,VALID,914.781,VALID,0,VALID,94.2483,VALID,0.107441,VALID,19.8753,VALID,241,VALID,0.322656,
2010-01-05, 03:44:04,VALID,914.739,VALID,0,VALID,94.3474,VALID,0,VALID,19.8558,VALID,241,VALID,0.210938,